User: anonymous   Login
Location: SAPM � Hemmingford
(45.0500°N, 73.5833°W)
Time: 15:23:00
(UTC-04:00)
Language:

Cosmos 1674 Rocket - Orbit

View from above orbital plane
View from above orbital plane
View from above satellite
View from above satellite

Ground track
Ground track

The orbit data is extracted from the following two-line orbital elements,

1 15945U 85069B   16181.88930622 +.00000072 +00000-0 +57890-5 0  9990
2 15945 082.5292 102.9390 0020043 009.4211 350.7376 14.83865194647708
Epoch (UTC): 29 June 2016 21:20:36
Eccentricity: 0.0020043
inclination: 82.5292°
perigee height: 603 km
apogee height: 631 km
right ascension of ascending node: 102.9390°
argument of perigee: 9.4211°
revolutions per day: 14.83865194
mean anomaly at epoch: 350.7376°
orbit number at epoch: 64770

The dashed part of the orbit path shows where the satellite is in the earth's shadow,  

DLR